{"data":{"norad_id":66491,"epoch":"2026-05-25T02:24:05.592672Z","epoch_age_seconds":56588,"freshness":"FRESH","line1":"1 66491U 25263G   26145.10006473 -.00017846  00000+0 -64050-3 0  9998","line2":"2 66491  43.0043 279.2713 0000803 243.0668 117.0102 15.27582636 30586","mean_motion":15.27582636,"eccentricity":8.03e-5,"inclination_deg":43.0043,"raan_deg":279.2713,"arg_perigee_deg":243.0668,"mean_anomaly_deg":117.0102,"bstar":-0.0006405,"rev_number":3058,"period_min":94.26658604674,"perigee_km":482.49025030901,"apogee_km":483.5921555284,"semimajor_km":6861.1782029187,"source":"CELESTRAK","updated_at":"2026-05-25T13:38:21.242934Z"}}